TimeEST,TemperatureF,Dew PointF,Humidity,Sea Level PressureIn,VisibilityMPH,Wind Direction,Wind SpeedMPH,Gust SpeedMPH,PrecipitationIn,Events,Conditions,WindDirDegrees,DateUTC
12:15 AM,30.2,23.0,75,30.34,10.0,SE,6.9,-,N/A,,Clear,140,2013-11-20 05:15:00
12:35 AM,30.2,23.0,75,30.35,10.0,SE,5.8,-,N/A,,Clear,140,2013-11-20 05:35:00
12:55 AM,30.2,23.0,75,30.35,10.0,SE,8.1,-,N/A,,Clear,130,2013-11-20 05:55:00
1:15 AM,30.2,23.0,75,30.35,10.0,SE,5.8,-,N/A,,Clear,130,2013-11-20 06:15:00
1:34 AM,28.4,23.0,80,30.35,10.0,ESE,5.8,-,N/A,,Clear,120,2013-11-20 06:34:00
1:55 AM,28.4,21.2,74,30.35,10.0,ESE,6.9,-,N/A,,Clear,120,2013-11-20 06:55:00
2:14 AM,28.4,21.2,74,30.35,10.0,ESE,4.6,-,N/A,,Clear,110,2013-11-20 07:14:00
2:35 AM,28.4,21.2,74,30.35,10.0,ESE,5.8,-,N/A,,Clear,110,2013-11-20 07:35:00
2:55 AM,28.4,21.2,74,30.35,10.0,ESE,4.6,-,N/A,,Clear,110,2013-11-20 07:55:00
3:14 AM,28.4,21.2,74,30.36,10.0,ESE,4.6,-,N/A,,Clear,120,2013-11-20 08:14:00
3:35 AM,28.4,23.0,80,30.36,10.0,ESE,6.9,-,N/A,,Clear,120,2013-11-20 08:35:00
3:55 AM,28.4,24.8,86,30.35,10.0,SE,3.5,-,N/A,,Clear,130,2013-11-20 08:55:00
4:14 AM,28.4,24.8,86,30.35,10.0,ESE,6.9,-,N/A,,Clear,110,2013-11-20 09:14:00
4:35 AM,28.4,24.8,86,30.35,10.0,ESE,5.8,-,N/A,,Clear,110,2013-11-20 09:35:00
4:55 AM,26.6,23.0,86,30.35,10.0,ESE,4.6,-,N/A,,Clear,110,2013-11-20 09:55:00
5:14 AM,26.6,23.0,86,30.35,10.0,ESE,3.5,-,N/A,,Clear,120,2013-11-20 10:14:00
5:35 AM,28.4,24.8,86,30.35,10.0,ESE,5.8,-,N/A,,Clear,120,2013-11-20 10:35:00
5:55 AM,28.4,23.0,80,30.36,10.0,Calm,Calm,-,N/A,,Clear,0,2013-11-20 10:55:00
6:14 AM,26.6,23.0,86,30.36,10.0,ESE,5.8,-,N/A,,Clear,110,2013-11-20 11:14:00
6:35 AM,28.4,23.0,80,30.36,10.0,ESE,6.9,-,N/A,,Clear,120,2013-11-20 11:35:00
6:55 AM,28.4,24.8,86,30.36,10.0,SE,5.8,-,N/A,,Clear,130,2013-11-20 11:55:00
7:14 AM,28.4,24.8,86,30.36,10.0,SE,6.9,-,N/A,,Clear,140,2013-11-20 12:14:00
7:35 AM,28.4,24.8,86,30.36,10.0,SE,5.8,-,N/A,,Clear,130,2013-11-20 12:35:00
7:55 AM,28.4,23.0,80,30.34,10.0,ESE,9.2,-,N/A,,Clear,120,2013-11-20 12:55:00
8:14 AM,28.4,24.8,86,30.34,10.0,ESE,10.4,-,N/A,,Clear,120,2013-11-20 13:14:00
8:35 AM,30.2,24.8,80,30.34,10.0,ESE,9.2,-,N/A,,Clear,120,2013-11-20 13:35:00
8:55 AM,30.2,24.8,80,30.34,10.0,SE,10.4,17.3,N/A,,Clear,130,2013-11-20 13:55:00
9:14 AM,32.0,24.8,75,30.34,10.0,SE,10.4,16.1,N/A,,Clear,130,2013-11-20 14:14:00
9:35 AM,33.8,24.8,70,30.33,10.0,SE,15.0,19.6,N/A,,Clear,130,2013-11-20 14:35:00
9:55 AM,33.8,26.6,75,30.32,10.0,SE,15.0,23.0,N/A,,Clear,130,2013-11-20 14:55:00
10:14 AM,35.6,26.6,70,30.32,10.0,SE,13.8,19.6,N/A,,Clear,130,2013-11-20 15:14:00
10:35 AM,35.6,26.6,70,30.31,10.0,SE,13.8,19.6,N/A,,Clear,140,2013-11-20 15:35:00
10:55 AM,35.6,26.6,70,30.31,10.0,SE,17.3,24.2,N/A,,Clear,130,2013-11-20 15:55:00
11:14 AM,35.6,26.6,70,30.30,10.0,SE,15.0,23.0,N/A,,Clear,140,2013-11-20 16:14:00
11:35 AM,37.4,26.6,65,30.30,10.0,SE,15.0,21.9,N/A,,Clear,140,2013-11-20 16:35:00
11:55 AM,37.4,26.6,65,30.29,10.0,SE,10.4,17.3,N/A,,Clear,130,2013-11-20 16:55:00
12:15 PM,39.2,26.6,61,30.28,10.0,SE,11.5,-,N/A,,Clear,130,2013-11-20 17:15:00
12:35 PM,39.2,26.6,61,30.27,10.0,SSE,12.7,-,N/A,,Clear,150,2013-11-20 17:35:00
12:55 PM,39.2,26.6,61,30.26,10.0,SE,10.4,-,N/A,,Clear,140,2013-11-20 17:55:00
1:15 PM,41.0,24.8,53,30.25,10.0,SE,12.7,-,N/A,,Clear,140,2013-11-20 18:15:00
1:35 PM,41.0,24.8,53,30.25,10.0,SSE,10.4,-,N/A,,Clear,150,2013-11-20 18:35:00
1:55 PM,42.8,26.6,53,30.24,10.0,SE,9.2,-,N/A,,Clear,140,2013-11-20 18:55:00
2:15 PM,42.8,24.8,49,30.23,10.0,SE,13.8,-,N/A,,Clear,130,2013-11-20 19:15:00
2:35 PM,42.8,26.6,53,30.21,10.0,ESE,15.0,-,N/A,,Clear,120,2013-11-20 19:35:00
2:55 PM,42.8,26.6,53,30.20,10.0,SE,12.7,-,N/A,,Clear,140,2013-11-20 19:55:00
3:15 PM,41.0,26.6,57,30.20,10.0,SE,13.8,18.4,N/A,,Clear,140,2013-11-20 20:15:00
3:35 PM,41.0,26.6,57,30.19,10.0,SE,16.1,-,N/A,,Clear,140,2013-11-20 20:35:00
3:55 PM,41.0,26.6,57,30.19,10.0,SE,10.4,-,N/A,,Clear,130,2013-11-20 20:55:00
4:15 PM,41.0,26.6,57,30.19,10.0,SE,13.8,-,N/A,,Clear,140,2013-11-20 21:15:00
4:35 PM,39.2,26.6,61,30.18,10.0,SE,12.7,18.4,N/A,,Clear,130,2013-11-20 21:35:00
4:55 PM,39.2,26.6,61,30.18,10.0,SE,10.4,-,N/A,,Clear,130,2013-11-20 21:55:00
5:15 PM,39.2,26.6,61,30.19,10.0,SE,9.2,-,N/A,,Clear,140,2013-11-20 22:15:00
5:35 PM,37.4,28.4,70,30.20,10.0,SSE,8.1,-,N/A,,Clear,160,2013-11-20 22:35:00
5:54 PM,37.4,28.4,70,30.20,10.0,SSE,6.9,-,N/A,,Clear,150,2013-11-20 22:54:00
6:15 PM,37.4,28.4,70,30.20,10.0,SE,6.9,-,N/A,,Clear,140,2013-11-20 23:15:00
6:35 PM,37.4,28.4,70,30.20,10.0,SE,8.1,-,N/A,,Clear,130,2013-11-20 23:35:00
6:54 PM,37.4,28.4,70,30.20,10.0,SE,8.1,-,N/A,,Clear,130,2013-11-20 23:54:00
7:15 PM,37.4,28.4,70,30.19,10.0,SE,8.1,-,N/A,,Clear,130,2013-11-21 00:15:00
7:35 PM,37.4,28.4,70,30.19,10.0,SE,5.8,-,N/A,,Clear,140,2013-11-21 00:35:00
7:54 PM,37.4,28.4,70,30.19,10.0,SE,8.1,-,N/A,,Clear,140,2013-11-21 00:54:00
8:15 PM,37.4,30.2,75,30.19,10.0,SE,9.2,-,N/A,,Clear,140,2013-11-21 01:15:00
8:35 PM,39.2,30.2,70,30.18,10.0,SE,10.4,-,N/A,,Scattered Clouds,140,2013-11-21 01:35:00
8:54 PM,39.2,30.2,70,30.17,10.0,SE,9.2,-,N/A,,Scattered Clouds,140,2013-11-21 01:54:00
9:15 PM,39.2,30.2,70,30.17,10.0,SSE,8.1,-,N/A,,Overcast,150,2013-11-21 02:15:00
9:35 PM,39.2,30.2,70,30.16,10.0,SSE,9.2,-,N/A,,Overcast,150,2013-11-21 02:35:00
9:54 PM,41.0,30.2,65,30.16,10.0,SSE,12.7,-,N/A,,Overcast,150,2013-11-21 02:54:00
10:15 PM,41.0,30.2,65,30.17,10.0,SSE,8.1,-,N/A,,Overcast,160,2013-11-21 03:15:00
10:35 PM,42.8,30.2,61,30.18,10.0,South,6.9,-,N/A,,Overcast,180,2013-11-21 03:35:00
10:54 PM,42.8,30.2,61,30.20,10.0,South,6.9,-,N/A,,Overcast,190,2013-11-21 03:54:00
11:15 PM,42.8,30.2,61,30.20,10.0,Calm,Calm,-,N/A,,Overcast,0,2013-11-21 04:15:00
11:35 PM,42.8,30.2,61,30.20,10.0,Calm,Calm,-,N/A,,Overcast,0,2013-11-21 04:35:00
11:54 PM,42.8,30.2,61,30.20,10.0,Calm,Calm,-,N/A,,Overcast,0,2013-11-21 04:54:00